Other Public Products
Issued by NWS Grand Forks, ND

Home | Current Version | Previous Version | Text Only | Print | Product List | Glossary On
Versions: 1 2 3 4 5 6 7 8 9 10 11 12 13 14 15 16 17 18 19 20 21 22 23 24 25 26 27 28 29 30 31 32 33 34 35 36 37 38 39 40 41 42 43 44 45 46 47 48 49 50
000
FPUS83 KFGF 042331
OPUFGF
PRAIRIE TO PINES WEATHER ROUNDUP
NATIONAL WEATHER SERVICE EASTERN NORTH DAKOTA/GRAND FORKS ND
500 PM CST SUN DEC 04 2016

 **SATELLITE DATA USED TO AUGMENT SKY COVER AT AUTOMATED STATIONS**
 *****  WEATHER ACROSS EASTERN NORTH DAKOTA  *****

CITY           SKY/WX    TMP DP  RH WIND       PRES   REMARKS
GRAND FORKS    LGT SNOW  32  28  85 W10       29.64S FOG     WCI  24
GRAND FORKS AF MOCLDY    32  27  80 NW10      29.64S WCI  24
GRAND CITY NWS   N/A     32 N/A N/A W10         N/A  WCI  24
BUXTON           N/A     45  43  93 W12         N/A
DEVILS LAKE    FLURRIES  26  24  92 W10       29.65S WCI  16
FARGO          PTCLDY    33  27  78 W15       29.69R WCI  23
WAHPETON ARPT  CLOUDY    32  30  93 SW6       29.72S
$$

 *****  WEATHER ACROSS CENTRAL AND WESTERN NORTH DAKOTA  *****

CITY           SKY/WX    TMP DP  RH WIND       PRES   REMARKS
JAMESTOWN      CLEAR     30  27  88 W8        29.67R WCI  22
BISMARCK       CLEAR     27  20  75 SW6       29.69S WCI  20
MINOT          CLEAR     26  19  74 SW7       29.63S WCI  18
MINOT AFB      CLEAR     18  15  87 W5        29.63R WCI  11
GARRISON         N/A     24  19  81 W5        29.63F WCI  18
WILLISTON      PTCLDY    30  21  69 S5        29.61F
DICKINSON      CLEAR     24  18  77 SW9       29.61F WCI  14
HETTINGER      CLEAR     31  23  72 SE6       29.66F
$$

 *****  OTHER OBSERVATIONS NORTHEAST NORTH DAKOTA  *****

CITY           SKY/WX    TMP DP  RH WIND       PRES   REMARKS
WALHALLA         N/A     30  30 100 W13G18    29.61S WCI  20
LANGDON        CLOUDY    28  27  93 W15G23    29.61R WCI  17
CAVALIER       LGT SNOW  32  28  86 W10       29.62R WCI  24
GRAFTON        FLURRIES  32  30  93 W9        29.64F WCI  24
CANDO          CLOUDY    25  25 100 W10       29.66S WCI  15
FORT TOTTEN      N/A     25  25 100 W7        29.95S WCI  17
ROLLA          CLOUDY    23  23 100 W8        29.62S WCI  14
RUGBY            N/A     25  25 100 NW9       29.64S FOG     WCI  15
 ***** THE ABOVE OBSERVATIONS ARE NON NWS ARE NOT QUALITY
        CONTROLLED AND MAY MIS-REPORT RAIN FOR SNOW...
$$

 *****  OTHER OBSERVATIONS SOUTHEAST NORTH DAKOTA *****

CITY           SKY/WX    TMP DP  RH WIND       PRES   REMARKS
COOPERSTOWN    CLOUDY    30  27  86 W10       29.66S WCI  21
VALLEY CITY    CLOUDY    32  32 100 W16       29.68S WCI  21
OAKES          NOT AVBL
GWINNER          N/A     34  32  93 W9        29.72R
SHEYENNE NWR     N/A     36  29  76 W7        29.95S
BUFFALO          N/A     32  26  78 CALM        N/A
WYNDMERE         N/A     36  32  87 W6          N/A
 ***** THE ABOVE OBSERVATIONS ARE NON NWS ARE NOT QUALITY
       CONTROLLED AND MAY MIS-REPORT RAIN FOR SNOW...
$$

  *****  WEATHER ACROSS NORTHERN MINNESOTA  *****

CITY           SKY/WX    TMP DP  RH WIND       PRES   REMARKS
FLAG ISLAND    LGT SNOW  32  30  93 S20       29.58F WCI  20
WARROAD        LGT SNOW  30  27  86 SW6       29.61R WCI  24
ROSEAU         CLOUDY    30  27  86 SW6       29.60S WCI  24
HALLOCK        CLOUDY    32  30  93 W9        29.61S FOG     WCI  24
THF RVR FALLS  FLURRIES  30  28  93 SW9       29.64S WCI  22
HALSTAD          N/A     32  28  88 W6          N/A
FOSSTON        CLOUDY    28  27  93 SW6       29.65S FOG     WCI  22
BAUDETTE       LGT SNOW  32  30  92 SE8       29.60F FOG     WCI  25
WASKISH        LGT SNOW  32  30  93 SE3       29.62S
CROOKSTON      CLOUDY    30  30 100 W9        29.66S WCI  22
$$
  *****  WEATHER ACROSS CENTRAL AND WEST MINNESOTA  *****

CITY           SKY/WX    TMP DP  RH WIND       PRES   REMARKS
BEMIDJI        MIX PCPN  31  30  96 W14       29.63R WCI  21
PARK RAPIDS    CLOUDY    32  27  81 W8        29.65R WCI  25
WADENA         MIX PCPN  30  28  93 W9        29.68R WCI  22
DETROIT LAKES  MOCLDY    32  30  93 W9        29.68R WCI  24
MOORHEAD       MOCLDY    32  28  86 W14       29.70S WCI  22
FERGUS FALLS   CLOUDY    34  34 100 W5        29.75R
ELBOW LAKE     CLOUDY    33  32  97 CALM      29.72S
MORRIS MN      CLOUDY    34  30  86 SW8       29.73S
STAPLES        CLOUDY    30  30 100 W12       29.68S WCI  21
WHEATON        CLOUDY   N/A N/A N/A SW7       29.75S
$$
  *****  WEATHER ELSEWHERE ACROSS MINNESOTA  *****

CITY           SKY/WX    TMP DP  RH WIND       PRES   REMARKS
DULUTH         LGT SNOW  31  30  96 S7        29.68S FOG     WCI  24
INTRNTL FALLS  LGT SNOW  31  28  89 SE8       29.63F FOG     WCI  23
ELY            LGT SNOW  30  28  93 SE6       29.67F WCI  24
CLOQUET        CLOUDY    30  30 100 SE3       29.68S FOG
BRAINERD       CLOUDY    33  32  96 SW13      29.68R FOG     WCI  24
HIBBING        LGT SNOW  29  28  96 SE6       29.66F FOG     WCI  23
ALEXANDRIA     CLOUDY    34  31  88 W8        29.72R
SAINT CLOUD    CLOUDY    33  33 100 SW3       29.72S
MINNEAPOLIS    CLOUDY    37  32  82 SW9       29.75F
$$

  *****  WEATHER ACROSS SOUTH DAKOTA  *****

CITY           SKY/WX    TMP DP  RH WIND       PRES   REMARKS
SIOUX FALLS    CLEAR     40  33  76 W3        29.81R
BROOKINGS      CLEAR     36  30  79 W7        29.77S
WATERTOWN      CLEAR     32  28  85 SW12      29.75S WCI  23
HURON          CLEAR     36  30  79 SW5       29.78F
SISSETON         N/A     34  29  82 CALM      29.72S
ABERDEEN       CLEAR     32  26  78 S6        29.75S
MITCHELL       CLEAR     40  30  67 CALM      29.81S
PIERRE         CLEAR     38  27  64 S7        29.74F
MOBRIDGE       CLEAR     31  24  75 S7        29.70S WCI  24
RAPID CITY     PTCLDY    38  13  35 CALM      29.67F
$$

  *****  SOME WEATHER IN NEARBY STATES *****

CITY           SKY/WX    TMP DP  RH WIND       PRES   REMARKS
GLASGOW MT     CLOUDY    35  29  78 W8        29.53F
GREAT FALLS MT CLOUDY    33  26  75 N22G28    29.53R WCI  21
CHEYENNE WY    CLEAR     42  18  37 W35G51    29.73F
SCOTTSBLUFF NE CLEAR     44  17  33 W7        29.75F
OMAHA NE       CLEAR     36  30  79 S8        29.91R
DES MOINES IA  PTCLDY    36  33  89 W8        29.90F FOG
DAVENPORT IA   CLOUDY    32  31  96 SW8       29.91F FOG     WCI  25
CHICAGO IL     LGT SNOW  32  32 100 CALM      29.90F VSB 1
EAU CLAIRE WI  CLOUDY    33  32  96 S8        29.77F
LA CROSSE WI   CLOUDY    35  33  92 S7        29.84S
$$

  *****  SOME NATIONAL WEATHER *****

CITY           SKY/WX    TMP DP  RH WIND       PRES   REMARKS
LA GUARDIA NY  MOCLDY    45  23  42 NE8       30.20R
RALEIGH NC     LGT RAIN  43  40  89 SE3       30.19F FOG
ATLANTA GA     LGT RAIN  45  45 100 E10       30.03S FOG
NEW ORLEANS LA RAIN      62  62 100 N7        29.94R FOG
OKLAHOMA CITY  PTCLDY    51  37  58 N7        30.03F
ALBUQUERQUE NM PTCLDY    47  13  25 S6        30.07F
SALT LAKE CITY CLOUDY    41  21  44 SE9       29.95F
LOS ANGELES CA MOSUNNY   65  45  48 W7        30.00F
BOISE ID       RAIN      42  39  89 N8        29.82R FOG
SEATTLE WA     PTCLDY    44  36  73 SW8       30.08R
$$

*** WEATHER ACROSS MANITOBA...SASKATCHEWAN AND ONTARIO ***
                ***ONTARIO***

CITY           SKY/WX    TMP DP  RH WIND       PRES   REMARKS
GERALDTON      LGT SNOW  25  23  93 SE10      29.85F VSB 3/4 WCI  15
THUNDER BAY    LGT SNOW  32  32 100 NE7       29.79F
SIOUX LOOKOUT  SNOWSHWR  28  27  93 SE7       29.68F WCI  21
TORONTO        CLOUDY    36  28  75 E8        30.10F
BIG TROUT LK   CLOUDY    27  23  86 S12       29.80F WCI  16
PICKLE LAKE    MOCLDY    27  23  86 SE10      29.76F WCI  17
DRYDEN         LGT SNOW  30  30 100 SE9       29.65F WCI  22
KENORA         LGT SNOW  30  28  93 SE9       29.61S WCI  22
$$
                *** MANITOBA***

CITY           SKY/WX    TMP DP  RH WIND       PRES   REMARKS
BRANDON        FLURRIES  27  23  86 NW12      29.62S WCI  16
DAUPHIN        CLOUDY    28  25  86 W10       29.62R WCI  19
ISLAND LAKE    LGT SNOW  25  23  93 SE7       29.70S WCI  17
PILOT MOUND      N/A     27  25  93 NW14        N/A  WCI  15
THE PAS        CLOUDY    27  23  86 SW6       29.59S WCI  20
THOMPSON       LGT SNOW  27  25  93 SE3       29.64S
WINNIPEG       LGT SNOW  32  30  93 NW8       29.57R FOG     WCI  25
LYNN LAKE      LGT SNOW  23  23 100 E5        29.57S WCI  17
CHURCHILL      CLOUDY    16  14  93 S7        29.82S WCI   6
GILLAM         FLURRIES  21  19  93 SE5       29.74F WCI  15
$$
                ***SASKATCHEWAN***

CITY           SKY/WX    TMP DP  RH WIND       PRES   REMARKS
ESTEVAN        MOCLDY    16  14  93 E3        29.61S
KINDERSLEY     MOCLDY    19  16  86 NW7       29.59R WCI  10
LLOYDMINSTER   CLOUDY    25  18  74 NW13      29.56R WCI  13
PRINCE ALBERT  PTCLDY    25  18  74 SW5       29.55S WCI  19
REGINA         MOCLDY    19  18  93 SE9       29.57F WCI   9
YORKTON        FOG       21  21 100 SW3       29.60S VSC1F1C2F2C3F3C4F4C5F5C6F6C7F7C8F8C9F9CaFaCbFbCcFcCdFdCe!



USA.gov is the U.S. government's official web portal to all federal, state and local government web resources and services.